When you browse on this site, cookies collect data to enhance your experience and personalize the content and advertising you see.
Visit our Privacy Policy to learn more. By continuing to use the site, you agree to this use of cookies and data.
  • In Denmark
  • List of Countries
  • For 7 days
  • Water Temperature
  • Satellite Maps
  • Weather Map
  • Weather Widgets
  • user-avatar
    Login

    Hourly Weather Al-Basra

    Today, 17 July, Wednesday

    Time Temperature Precipitation Wind Pressure Humidity
    00:00 +38°C° 0 mm 8 mps 745 mmHg 18%
    01:00 +36°C° 0 mm 7 mps 744 mmHg 19%
    02:00 +35°C° 0 mm 7 mps 744 mmHg 20%
    03:00 +35°C° 0 mm 7 mps 744 mmHg 20%
    04:00 +35°C° 0 mm 7 mps 744 mmHg 20%
    05:00 +34°C° 0 mm 7 mps 745 mmHg 21%
    06:00 +34°C° 0 mm 7 mps 745 mmHg 22%
    07:00 +37°C° 0 mm 9 mps 745 mmHg 19%
    08:00 +40°C° 0 mm 10 mps 746 mmHg 16%
    09:00 +44°C° 0 mm 12 mps 746 mmHg 13%
    10:00 +46°C° 0 mm 12 mps 746 mmHg 12%
    11:00 +47°C° 0 mm 11 mps 746 mmHg 11%
    12:00 +49°C° 0 mm 11 mps 745 mmHg 10%
    13:00 +49°C° 0 mm 11 mps 745 mmHg 10%
    14:00 +51°C° 0 mm 11 mps 744 mmHg 10%
    15:00 +51°C° 0 mm 11 mps 744 mmHg 9%
    16:00 +49°C° 0 mm 11 mps 744 mmHg 10%
    17:00 +48°C° 0 mm 10 mps 744 mmHg 11%
    18:00 +48°C° 0 mm 10 mps 744 mmHg 12%
    19:00 +45°C° 0 mm 9 mps 744 mmHg 13%
    20:00 +43°C° 0 mm 8 mps 744 mmHg 14%
    21:00 +40°C° 0 mm 7 mps 745 mmHg 15%
    22:00 +39°C° 0 mm 7 mps 745 mmHg 16%
    23:00 +39°C° 0 mm 6 mps 745 mmHg 16%

    Tomorrow, 18 July, Thursday

    Time Temperature Precipitation Wind Pressure Humidity
    00:00 +38°C° 0 mm 6 mps 745 mmHg 17%
    01:00 +36°C° 0 mm 6 mps 745 mmHg 18%
    02:00 +35°C° 0 mm 6 mps 744 mmHg 19%
    03:00 +34°C° 0 mm 6 mps 744 mmHg 20%
    04:00 +34°C° 0 mm 6 mps 744 mmHg 20%
    05:00 +34°C° 0 mm 6 mps 744 mmHg 21%
    06:00 +34°C° 0 mm 6 mps 745 mmHg 22%
    07:00 +38°C° 0 mm 8 mps 745 mmHg 18%
    08:00 +42°C° 0 mm 10 mps 745 mmHg 15%
    09:00 +46°C° 0 mm 12 mps 745 mmHg 11%
    10:00 +48°C° 0 mm 12 mps 745 mmHg 10%
    11:00 +52°C° 0 mm 13 mps 744 mmHg 8%
    12:00 +55°C° 0 mm 13 mps 744 mmHg 6%
    13:00 +55°C° 0 mm 14 mps 744 mmHg 6%
    14:00 +56°C° 0 mm 14 mps 743 mmHg 6%
    15:00 +56°C° 0 mm 14 mps 742 mmHg 5%
    16:00 +55°C° 0 mm 13 mps 742 mmHg 5%
    17:00 +53°C° 0 mm 13 mps 742 mmHg 6%
    18:00 +52°C° 0 mm 12 mps 742 mmHg 6%
    19:00 +49°C° 0 mm 11 mps 743 mmHg 7%
    20:00 +47°C° 0 mm 10 mps 743 mmHg 8%
    21:00 +45°C° 0 mm 9 mps 744 mmHg 10%
    22:00 +44°C° 0 mm 9 mps 744 mmHg 11%
    23:00 +43°C° 0 mm 10 mps 744 mmHg 13%

    Day after tomorrow, 19 July, Friday

    Time Temperature Precipitation Wind Pressure Humidity
    00:00 +43°C° 0 mm 11 mps 744 mmHg 15%
    01:00 +42°C° 0 mm 11 mps 744 mmHg 15%
    02:00 +40°C° 0 mm 10 mps 743 mmHg 14%
    03:00 +40°C° 0 mm 10 mps 743 mmHg 14%
    04:00 +40°C° 0 mm 10 mps 744 mmHg 14%
    05:00 +39°C° 0 mm 9 mps 744 mmHg 14%
    06:00 +39°C° 0 mm 9 mps 744 mmHg 13%
    07:00 +43°C° 0 mm 11 mps 744 mmHg 11%
    08:00 +47°C° 0 mm 13 mps 744 mmHg 9%
    09:00 +51°C° 0 mm 15 mps 745 mmHg 7%
    10:00 +52°C° 0 mm 14 mps 744 mmHg 6%
    11:00 +54°C° 0 mm 14 mps 744 mmHg 6%
    12:00 +56°C° 0 mm 14 mps 744 mmHg 5%
    13:00 +56°C° 0 mm 14 mps 743 mmHg 5%
    14:00 +56°C° 0 mm 13 mps 743 mmHg 5%
    15:00 +56°C° 0 mm 13 mps 742 mmHg 5%
    16:00 +54°C° 0 mm 12 mps 743 mmHg 5%
    17:00 +53°C° 0 mm 11 mps 743 mmHg 6%
    18:00 +52°C° 0 mm 10 mps 743 mmHg 6%
    19:00 +49°C° 0 mm 10 mps 743 mmHg 7%
    20:00 +47°C° 0 mm 10 mps 744 mmHg 9%
    21:00 +44°C° 0 mm 10 mps 744 mmHg 10%
    22:00 +42°C° 0 mm 9 mps 744 mmHg 12%
    23:00 +40°C° 0 mm 8 mps 744 mmHg 14%

    20 July, Saturday

    Time Temperature Precipitation Wind Pressure Humidity
    00:00 +39°C° 0 mm 7 mps 745 mmHg 16%
    01:00 +38°C° 0 mm 7 mps 745 mmHg 17%
    02:00 +38°C° 0 mm 7 mps 744 mmHg 18%
    03:00 +37°C° 0 mm 8 mps 744 mmHg 19%
    04:00 +36°C° 0 mm 7 mps 745 mmHg 20%
    05:00 +35°C° 0 mm 7 mps 745 mmHg 21%
    06:00 +35°C° 0 mm 6 mps 745 mmHg 22%
    07:00 +39°C° 0 mm 8 mps 746 mmHg 19%
    08:00 +42°C° 0 mm 9 mps 746 mmHg 16%
    09:00 +45°C° 0 mm 10 mps 746 mmHg 13%
    10:00 +48°C° 0 mm 10 mps 746 mmHg 12%
    11:00 +50°C° 0 mm 9 mps 746 mmHg 10%
    12:00 +53°C° 0 mm 9 mps 745 mmHg 8%
    13:00 +54°C° 0 mm 8 mps 745 mmHg 7%
    14:00 +55°C° 0 mm 8 mps 744 mmHg 7%
    15:00 +56°C° 0 mm 7 mps 744 mmHg 6%
    16:00 +55°C° 0 mm 7 mps 744 mmHg 6%
    17:00 +53°C° 0 mm 7 mps 743 mmHg 6%
    18:00 +53°C° 0 mm 7 mps 743 mmHg 7%
    19:00 +50°C° 0 mm 7 mps 744 mmHg 8%
    20:00 +47°C° 0 mm 6 mps 744 mmHg 10%
    21:00 +45°C° 0 mm 6 mps 744 mmHg 12%
    22:00 +44°C° 0 mm 6 mps 745 mmHg 13%
    23:00 +41°C° 0 mm 6 mps 745 mmHg 15%

    21 July, Sunday

    Time Temperature Precipitation Wind Pressure Humidity
    00:00 +40°C° 0 mm 6 mps 745 mmHg 16%
    01:00 +39°C° 0 mm 6 mps 745 mmHg 17%
    02:00 +37°C° 0 mm 5 mps 745 mmHg 17%
    03:00 +37°C° 0 mm 5 mps 744 mmHg 18%
    04:00 +36°C° 0 mm 5 mps 745 mmHg 18%
    05:00 +36°C° 0 mm 6 mps 745 mmHg 18%
    06:00 +36°C° 0 mm 6 mps 745 mmHg 18%
    07:00 +40°C° 0 mm 6 mps 745 mmHg 16%
    08:00 +44°C° 0 mm 6 mps 745 mmHg 13%
    09:00 +47°C° 0 mm 6 mps 746 mmHg 10%
    10:00 +49°C° 0 mm 5 mps 745 mmHg 8%
    11:00 +51°C° 0 mm 4 mps 745 mmHg 7%
    12:00 +53°C° 0 mm 2 mps 745 mmHg 5%
    13:00 +53°C° 0 mm 2 mps 744 mmHg 5%
    14:00 +53°C° 0 mm 1 mps 743 mmHg 4%
    15:00 +53°C° 0 mm 1 mps 743 mmHg 4%
    16:00 +52°C° 0 mm 1 mps 742 mmHg 4%
    17:00 +52°C° 0 mm 2 mps 742 mmHg 4%
    18:00 +51°C° 0 mm 2 mps 742 mmHg 5%
    19:00 +49°C° 0 mm 2 mps 742 mmHg 5%
    20:00 +47°C° 0 mm 2 mps 743 mmHg 6%
    21:00 +45°C° 0 mm 3 mps 743 mmHg 7%
    22:00 +44°C° 0 mm 4 mps 743 mmHg 8%
    23:00 +45°C° 0 mm 5 mps 743 mmHg 9%

    22 July, Monday

    Time Temperature Precipitation Wind Pressure Humidity
    00:00 +44°C° 0 mm 7 mps 743 mmHg 10%
    01:00 +42°C° 0 mm 6 mps 742 mmHg 11%
    02:00 +41°C° 0 mm 6 mps 742 mmHg 11%
    03:00 +41°C° 0 mm 5 mps 742 mmHg 12%
    04:00 +40°C° 0 mm 5 mps 742 mmHg 12%
    05:00 +40°C° 0 mm 4 mps 743 mmHg 12%
    06:00 +38°C° 0 mm 3 mps 743 mmHg 12%
    07:00 +43°C° 0 mm 3 mps 743 mmHg 10%
    08:00 +46°C° 0 mm 3 mps 743 mmHg 9%
    09:00 +51°C° 0 mm 3 mps 744 mmHg 7%
    10:00 +52°C° 0 mm 4 mps 743 mmHg 7%
    11:00 +55°C° 0 mm 5 mps 743 mmHg 7%
    12:00 +58°C° 0 mm 6 mps 743 mmHg 6%
    13:00 +57°C° 0 mm 5 mps 742 mmHg 6%
    14:00 +57°C° 0 mm 4 mps 742 mmHg 6%
    15:00 +56°C° 0 mm 3 mps 741 mmHg 6%
    16:00 +54°C° 0 mm 2 mps 741 mmHg 6%
    17:00 +53°C° 0 mm 2 mps 741 mmHg 6%
    18:00 +51°C° 0 mm 1 mps 741 mmHg 7%
    19:00 +50°C° 0 mm 2 mps 741 mmHg 7%
    20:00 +48°C° 0 mm 3 mps 741 mmHg 8%
    21:00 +46°C° 0 mm 3 mps 741 mmHg 9%
    22:00 +45°C° 0 mm 4 mps 741 mmHg 9%
    23:00 +46°C° 0 mm 5 mps 741 mmHg 9%
    Show more